Change the Weather History Date:

Monday, November 11, 2013

  Actual Average Record
Temperature  
Mean Temperature 78 °F -  
Max Temperature 86 °F 85 °F 91 °F (2003)
Min Temperature 69 °F 63 °F 55 °F (2010)
Cooling Degree Days 12    
Growing Degree Days 28 (Base 50)    
Moisture  
Dew Point 68 °F    
Average Humidity 74    
Maximum Humidity 88    
Minimum Humidity 56    
Precipitation  
Precipitation 0.00 in - - ()
Sea Level Pressure  
Sea Level Pressure 29.86 in    
Wind  
Wind Speed 5 mph ()    
Max Wind Speed 10 mph    
Max Gust Speed -    
Visibility 10.9 miles    
Events      
Averages and records for this station are not official NWS values.
T = Trace of Precipitation, MM = Missing Value Source: Averaged Metar Reports

Daily Weather History Graph

Daily Weather History Graph

Search for Another Location

Airport or City:

Trip Planner

Search our weather history database for the weather conditions in past years. The results will help you decide how hot, cold, wet, or windy it might be!

Date:

Astronomy

Nov. 11, 2013 Rise Set
Actual Time 6:16 AM MST 5:21 PM MST
Civil Twilight 5:52 AM MST 5:45 PM MST
Nautical Twilight 5:25 AM MST 6:12 PM MST
Astronomical Twilight 4:58 AM MST 6:39 PM MST
Moon 1:27 PM MST (11/11) 12:44 AM MST (11/11)
Length of Visible Light 11h 52m
Length of Day
11h 05m
Waxing Gibbous, 67% of the Moon is Illuminated
Nov 11
Waxing Gibbous
Nov 17
Full
Nov 25
Last Quarter
Dec 2
New
Dec 9
First Quarter

Hourly Weather History & Observations

Time (MST) Temp. Heat Index Dew Point Humidity Pressure Visibility Wind Dir Wind Speed Gust Speed Precip Events Conditions
12:40 AM 69.8 °F - 66.2 °F 88% 29.86 in 10.0 mi NNE 6.9 mph - N/A   Scattered Clouds
1:43 AM 69.8 °F - 64.4 °F 83% 29.86 in 10.0 mi Calm Calm - N/A   Scattered Clouds
2:00 AM 74 °F - 71 °F 88% 29.86 in - East 2.2 mph - -  
2:41 AM 69.8 °F - 64.4 °F 83% 29.85 in 10.0 mi North 5.8 mph - N/A   Mostly Cloudy
3:42 AM 69.8 °F - 64.4 °F 83% 29.85 in 10.0 mi North 8.1 mph - N/A   Scattered Clouds
4:50 AM 69.8 °F - 64.4 °F 83% 29.87 in 10.0 mi NNE 8.1 mph - N/A   Scattered Clouds
5:47 AM 69.8 °F - 64.4 °F 83% 29.87 in 10.0 mi North 8.1 mph - N/A   Clear
6:46 AM 69.8 °F - 64.4 °F 83% 29.89 in 10.0 mi North 6.9 mph - N/A   Clear
7:40 AM 71.6 °F - 66.2 °F 83% 29.90 in 10.0 mi North 6.9 mph - N/A   Clear
8:00 AM 80 °F - 72 °F 72% 29.92 in - WNW 2.2 mph - -  
8:42 AM 75.2 °F - 69.8 °F 83% 29.91 in 10.0 mi North 6.9 mph - N/A   Clear
9:43 AM 80.6 °F 84.6 °F 71.6 °F 74% 29.91 in 10.0 mi South 6.9 mph - N/A   Clear
10:44 AM 82.4 °F 87.2 °F 71.6 °F 70% 29.90 in 10.0 mi SSW 6.9 mph - N/A   Partly Cloudy
11:00 AM 85 °F - 75 °F 64% 29.91 in - West 4.5 mph - -  
11:43 AM 84.2 °F 89.6 °F 71.6 °F 66% 29.87 in 12.0 mi SW 8.1 mph - N/A   Clear
12:41 PM 84.2 °F 89.6 °F 71.6 °F 66% 29.84 in 12.0 mi SSW 8.1 mph - N/A   Clear
1:45 PM 84.2 °F 89.6 °F 71.6 °F 66% 29.82 in 12.0 mi WSW 8.1 mph - N/A   Clear
2:00 PM 86 °F - 73 °F 56% 29.84 in - West 6.7 mph - -  
2:40 PM 84.2 °F 88.4 °F 69.8 °F 62% 29.80 in 14.0 mi WSW 10.4 mph - N/A   Clear
3:49 PM 84.2 °F 87.3 °F 68.0 °F 58% 29.80 in 15.0 mi WSW 10.4 mph - N/A   Clear
4:40 PM 82.4 °F 84.6 °F 66.2 °F 58% 29.82 in 15.0 mi West 10.4 mph - N/A   Clear
5:00 PM 83 °F - 70 °F 57% 29.83 in - WNW 8.9 mph - -  
5:44 PM 78.8 °F - 66.2 °F 65% 29.81 in 12.0 mi West 9.2 mph - N/A   Clear
6:43 PM 73.4 °F - 66.2 °F 78% 29.84 in 10.0 mi Calm Calm - N/A   Clear
7:44 PM 73.4 °F - 66.2 °F 78% 29.86 in 10.0 mi WSW 6.9 mph - N/A   Clear
8:00 PM 79 °F - 73 °F 78% 29.88 in - WNW 4.5 mph - -  
8:49 PM 71.6 °F - 64.4 °F 78% 29.87 in 10.0 mi West 8.1 mph - N/A   Clear
9:53 PM 71.6 °F - 64.4 °F 78% 29.88 in 10.0 mi North 8.1 mph - N/A   Clear
10:47 PM 71.6 °F - 66.2 °F 83% 29.88 in 10.0 mi NW 6.9 mph - N/A   Clear
11:43 PM 69.8 °F - 64.4 °F 83% 29.88 in 10.0 mi Calm Calm - N/A   Clear